Year,Month,Day,Hour,Minute,Value (Times are PST for windgust in km/hr)
2015,08,31,00,00,6.40
2015,08,31,00,01,6.40
2015,08,31,00,02,6.40
2015,08,31,00,03,4.80
2015,08,31,00,04,4.80
2015,08,31,00,05,6.40
2015,08,31,00,06,6.40
2015,08,31,00,07,6.40
2015,08,31,00,08,6.40
2015,08,31,00,09,6.40
2015,08,31,00,10,4.80
2015,08,31,00,11,4.80
2015,08,31,00,12,4.80
2015,08,31,00,13,3.20
2015,08,31,00,14,3.20
2015,08,31,00,15,6.40
2015,08,31,00,16,3.20
2015,08,31,00,17,6.40
2015,08,31,00,18,4.80
2015,08,31,00,19,4.80
2015,08,31,00,20,4.80
2015,08,31,00,21,8.10
2015,08,31,00,22,6.40
2015,08,31,00,23,3.20
2015,08,31,00,24,6.40
2015,08,31,00,25,4.80
2015,08,31,00,26,6.40
2015,08,31,00,27,6.40
2015,08,31,00,28,4.80
2015,08,31,00,29,4.80
2015,08,31,00,30,4.80
2015,08,31,00,31,3.20
2015,08,31,00,32,4.80
2015,08,31,00,33,6.40
2015,08,31,00,34,6.40
2015,08,31,00,35,4.80
2015,08,31,00,36,6.40
2015,08,31,00,37,4.80
2015,08,31,00,38,4.80
2015,08,31,00,39,6.40
2015,08,31,00,40,6.40
2015,08,31,00,41,4.80
2015,08,31,00,42,8.10
2015,08,31,00,43,6.40
2015,08,31,00,44,4.80
2015,08,31,00,45,4.80
2015,08,31,00,46,4.80
2015,08,31,00,47,4.80
2015,08,31,00,48,4.80
2015,08,31,00,49,3.20
2015,08,31,00,50,4.80
2015,08,31,00,51,4.80
2015,08,31,00,52,3.20
2015,08,31,00,53,4.80
2015,08,31,00,54,3.20
2015,08,31,00,55,4.80
2015,08,31,00,56,3.20
2015,08,31,00,57,4.80
2015,08,31,00,58,4.80
2015,08,31,00,59,4.80
2015,08,31,01,00,6.40
2015,08,31,01,01,8.10
2015,08,31,01,02,8.10
2015,08,31,01,03,9.60
2015,08,31,01,04,6.40
2015,08,31,01,05,9.60
2015,08,31,01,06,9.60
2015,08,31,01,07,4.80
2015,08,31,01,08,6.40
2015,08,31,01,09,3.20
2015,08,31,01,10,8.10
2015,08,31,01,11,3.20
2015,08,31,01,12,4.80
2015,08,31,01,13,8.10
2015,08,31,01,14,4.80
2015,08,31,01,15,8.10
2015,08,31,01,16,6.40
2015,08,31,01,17,3.20
2015,08,31,01,18,6.40
2015,08,31,01,19,4.80
2015,08,31,01,20,4.80
2015,08,31,01,21,3.20
2015,08,31,01,22,4.80
2015,08,31,01,23,4.80
2015,08,31,01,24,3.20
2015,08,31,01,25,3.20
2015,08,31,01,26,3.20
2015,08,31,01,27,6.40
2015,08,31,01,28,3.20
2015,08,31,01,29,8.10
2015,08,31,01,30,3.20
2015,08,31,01,31,4.80
2015,08,31,01,32,4.80
2015,08,31,01,33,4.80
2015,08,31,01,34,3.20
2015,08,31,01,35,3.20
2015,08,31,01,36,1.60
2015,08,31,01,37,3.20
2015,08,31,01,38,6.40
2015,08,31,01,39,3.20
2015,08,31,01,46,1.60
2015,08,31,01,47,4.80
2015,08,31,01,48,4.80
2015,08,31,01,49,6.40
2015,08,31,01,50,6.40
2015,08,31,01,51,6.40
2015,08,31,01,52,3.20
2015,08,31,01,53,3.20
2015,08,31,01,54,4.80
2015,08,31,01,55,1.60
2015,08,31,01,56,1.60
2015,08,31,01,57,3.20
2015,08,31,01,58,4.80
2015,08,31,01,59,4.80
2015,08,31,02,00,4.80
2015,08,31,02,01,3.20
2015,08,31,02,02,1.60
2015,08,31,02,03,3.20
2015,08,31,02,05,1.60
2015,08,31,02,08,1.60
2015,08,31,02,09,3.20
2015,08,31,02,10,3.20
2015,08,31,02,14,1.60
2015,08,31,02,19,1.60
2015,08,31,02,20,1.60
2015,08,31,02,21,1.60
2015,08,31,02,22,3.20
2015,08,31,02,23,3.20
2015,08,31,02,24,3.20
2015,08,31,02,25,1.60
2015,08,31,02,26,1.60
2015,08,31,02,32,1.60
2015,08,31,02,33,3.20
2015,08,31,02,34,3.20
2015,08,31,02,35,1.60
2015,08,31,02,48,1.60
2015,08,31,02,50,8.10
2015,08,31,02,51,4.80
2015,08,31,02,52,4.80
2015,08,31,02,53,4.80
2015,08,31,02,54,4.80
2015,08,31,02,55,1.60
2015,08,31,02,56,1.60
2015,08,31,02,57,3.20
2015,08,31,02,58,1.60
2015,08,31,03,04,1.60
2015,08,31,03,05,3.20
2015,08,31,03,06,3.20
2015,08,31,03,07,4.80
2015,08,31,03,08,4.80
2015,08,31,03,09,4.80
2015,08,31,03,10,3.20
2015,08,31,03,11,3.20
2015,08,31,03,15,3.20
2015,08,31,03,16,3.20
2015,08,31,03,17,6.40
2015,08,31,03,18,4.80
2015,08,31,03,19,3.20
2015,08,31,03,20,3.20
2015,08,31,03,21,3.20
2015,08,31,03,22,3.20
2015,08,31,03,23,3.20
2015,08,31,03,24,1.60
2015,08,31,03,25,4.80
2015,08,31,03,26,4.80
2015,08,31,03,27,3.20
2015,08,31,03,28,3.20
2015,08,31,03,29,6.40
2015,08,31,03,30,3.20
2015,08,31,03,31,4.80
2015,08,31,03,32,4.80
2015,08,31,03,33,8.10
2015,08,31,03,34,4.80
2015,08,31,03,35,3.20
2015,08,31,03,36,4.80
2015,08,31,03,37,3.20
2015,08,31,03,38,3.20
2015,08,31,03,41,1.60
2015,08,31,03,42,3.20
2015,08,31,03,43,3.20
2015,08,31,03,44,3.20
2015,08,31,03,45,1.60
2015,08,31,03,46,3.20
2015,08,31,03,47,3.20
2015,08,31,03,48,3.20
2015,08,31,03,49,3.20
2015,08,31,03,50,1.60
2015,08,31,04,03,3.20
2015,08,31,04,04,1.60
2015,08,31,04,05,1.60
2015,08,31,04,09,1.60
2015,08,31,04,10,1.60
2015,08,31,04,11,4.80
2015,08,31,04,12,3.20
2015,08,31,04,13,3.20
2015,08,31,04,14,1.60
2015,08,31,04,15,1.60
2015,08,31,04,16,1.60
2015,08,31,04,17,3.20
2015,08,31,04,18,3.20
2015,08,31,04,19,3.20
2015,08,31,04,20,3.20
2015,08,31,04,21,4.80
2015,08,31,04,22,4.80
2015,08,31,04,23,4.80
2015,08,31,04,24,4.80
2015,08,31,04,25,6.40
2015,08,31,04,26,4.80
2015,08,31,04,27,3.20
2015,08,31,04,28,3.20
2015,08,31,04,29,4.80
2015,08,31,04,30,3.20
2015,08,31,04,31,4.80
2015,08,31,04,32,8.10
2015,08,31,04,33,8.10
2015,08,31,04,34,8.10
2015,08,31,04,35,4.80
2015,08,31,04,36,6.40
2015,08,31,04,37,4.80
2015,08,31,04,38,4.80
2015,08,31,04,39,4.80
2015,08,31,04,40,4.80
2015,08,31,04,41,6.40
2015,08,31,04,42,8.10
2015,08,31,04,43,6.40
2015,08,31,04,44,8.10
2015,08,31,04,45,8.10
2015,08,31,04,46,3.20
2015,08,31,04,47,4.80
2015,08,31,04,48,6.40
2015,08,31,04,49,4.80
2015,08,31,04,50,4.80
2015,08,31,04,51,1.60
2015,08,31,04,52,1.60
2015,08,31,04,56,1.60
2015,08,31,04,57,4.80
2015,08,31,04,58,3.20
2015,08,31,04,59,1.60
2015,08,31,05,00,3.20
2015,08,31,05,01,3.20
2015,08,31,05,02,6.40
2015,08,31,05,03,8.10
2015,08,31,05,04,8.10
2015,08,31,05,05,8.10
2015,08,31,05,06,6.40
2015,08,31,05,07,8.10
2015,08,31,05,08,6.40
2015,08,31,05,09,9.60
2015,08,31,05,10,11.30
2015,08,31,05,11,16.10
2015,08,31,05,12,12.90
2015,08,31,05,13,19.30
2015,08,31,05,14,11.30
2015,08,31,05,15,14.50
2015,08,31,05,16,16.10
2015,08,31,05,17,11.30
2015,08,31,05,18,16.10
2015,08,31,05,19,11.30
2015,08,31,05,20,8.10
2015,08,31,05,21,9.60
2015,08,31,05,22,11.30
2015,08,31,05,23,9.60
2015,08,31,05,24,19.30
2015,08,31,05,25,19.30
2015,08,31,05,26,16.10
2015,08,31,05,27,12.90
2015,08,31,05,28,11.30
2015,08,31,05,29,14.50
2015,08,31,05,30,11.30
2015,08,31,05,31,11.30
2015,08,31,05,32,9.60
2015,08,31,05,33,9.60
2015,08,31,05,34,8.10
2015,08,31,05,35,4.80
2015,08,31,05,36,9.60
2015,08,31,05,37,8.10
2015,08,31,05,38,8.10
2015,08,31,05,39,9.60
2015,08,31,05,40,6.40
2015,08,31,05,41,6.40
2015,08,31,05,42,8.10
2015,08,31,05,43,8.10
2015,08,31,05,45,1.60
2015,08,31,05,46,1.60
2015,08,31,05,49,1.60
2015,08,31,05,50,1.60
2015,08,31,05,51,1.60
2015,08,31,05,52,3.20
2015,08,31,05,53,1.60
2015,08,31,05,54,3.20
2015,08,31,05,55,4.80
2015,08,31,05,56,4.80
2015,08,31,05,57,3.20
2015,08,31,05,58,3.20
2015,08,31,05,59,3.20
2015,08,31,06,00,1.60
2015,08,31,06,03,1.60
2015,08,31,06,04,1.60
2015,08,31,06,05,1.60
2015,08,31,06,06,1.60
2015,08,31,06,07,1.60
2015,08,31,06,08,1.60
2015,08,31,06,09,1.60
2015,08,31,06,10,1.60
2015,08,31,06,11,1.60
2015,08,31,06,15,1.60
2015,08,31,06,16,3.20
2015,08,31,06,17,3.20
2015,08,31,06,18,1.60
2015,08,31,06,19,1.60
2015,08,31,06,20,1.60
2015,08,31,06,21,1.60
2015,08,31,06,22,3.20
2015,08,31,06,23,1.60
2015,08,31,06,24,1.60
2015,08,31,06,25,3.20
2015,08,31,06,26,3.20
2015,08,31,06,27,3.20
2015,08,31,06,28,3.20
2015,08,31,06,29,1.60
2015,08,31,06,30,1.60
2015,08,31,06,33,1.60
2015,08,31,06,34,1.60
2015,08,31,06,35,1.60
2015,08,31,06,36,3.20
2015,08,31,06,37,3.20
2015,08,31,06,38,3.20
2015,08,31,06,39,3.20
2015,08,31,06,40,4.80
2015,08,31,06,41,4.80
2015,08,31,06,42,4.80
2015,08,31,06,43,6.40
2015,08,31,06,44,6.40
2015,08,31,06,45,4.80
2015,08,31,06,46,4.80
2015,08,31,06,47,4.80
2015,08,31,06,48,1.60
2015,08,31,06,49,3.20
2015,08,31,06,50,1.60
2015,08,31,06,51,1.60
2015,08,31,06,52,1.60
2015,08,31,06,55,1.60
2015,08,31,06,56,1.60
2015,08,31,06,57,1.60
2015,08,31,07,00,3.20
2015,08,31,07,01,3.20
2015,08,31,07,02,3.20
2015,08,31,07,03,3.20
2015,08,31,07,04,4.80
2015,08,31,07,05,6.40
2015,08,31,07,06,4.80
2015,08,31,07,07,4.80
2015,08,31,07,08,4.80
2015,08,31,07,09,4.80
2015,08,31,07,10,6.40
2015,08,31,07,11,6.40
2015,08,31,07,12,6.40
2015,08,31,07,13,6.40
2015,08,31,07,14,3.20
2015,08,31,07,15,3.20
2015,08,31,07,16,3.20
2015,08,31,07,17,3.20
2015,08,31,07,18,3.20
2015,08,31,07,19,3.20
2015,08,31,07,20,1.60
2015,08,31,07,21,1.60
2015,08,31,07,22,1.60
2015,08,31,07,23,3.20
2015,08,31,07,24,3.20
2015,08,31,07,25,4.80
2015,08,31,07,26,4.80
2015,08,31,07,27,3.20
2015,08,31,07,28,3.20
2015,08,31,07,29,4.80
2015,08,31,07,30,3.20
2015,08,31,07,31,3.20
2015,08,31,07,32,1.60
2015,08,31,07,33,4.80
2015,08,31,07,34,3.20
2015,08,31,07,35,3.20
2015,08,31,07,36,3.20
2015,08,31,07,37,4.80
2015,08,31,07,38,4.80
2015,08,31,07,39,4.80
2015,08,31,07,40,4.80
2015,08,31,07,41,6.40
2015,08,31,07,42,6.40
2015,08,31,07,43,4.80
2015,08,31,07,44,3.20
2015,08,31,07,45,1.60
2015,08,31,07,46,3.20
2015,08,31,07,47,3.20
2015,08,31,07,48,4.80
2015,08,31,07,49,4.80
2015,08,31,07,50,3.20
2015,08,31,07,51,4.80
2015,08,31,07,52,4.80
2015,08,31,07,53,6.40
2015,08,31,07,54,4.80
2015,08,31,07,55,3.20
2015,08,31,07,56,1.60
2015,08,31,07,57,3.20
2015,08,31,07,58,3.20
2015,08,31,07,59,4.80
2015,08,31,08,00,4.80
2015,08,31,08,01,4.80
2015,08,31,08,02,4.80
2015,08,31,08,03,4.80
2015,08,31,08,04,4.80
2015,08,31,08,05,3.20
2015,08,31,08,06,3.20
2015,08,31,08,07,4.80
2015,08,31,08,08,3.20
2015,08,31,08,09,3.20
2015,08,31,08,10,4.80
2015,08,31,08,11,4.80
2015,08,31,08,12,3.20
2015,08,31,08,13,4.80
2015,08,31,08,14,4.80
2015,08,31,08,15,4.80
2015,08,31,08,16,4.80
2015,08,31,08,17,3.20
2015,08,31,08,18,3.20
2015,08,31,08,19,4.80
2015,08,31,08,20,4.80
2015,08,31,08,21,4.80
2015,08,31,08,22,6.40
2015,08,31,08,23,6.40
2015,08,31,08,24,1.60
2015,08,31,08,25,4.80
2015,08,31,08,26,3.20
2015,08,31,08,27,3.20
2015,08,31,08,28,3.20
2015,08,31,08,29,3.20
2015,08,31,08,30,4.80
2015,08,31,08,31,6.40
2015,08,31,08,32,4.80
2015,08,31,08,33,3.20
2015,08,31,08,34,3.20
2015,08,31,08,35,1.60
2015,08,31,08,36,1.60
2015,08,31,08,38,1.60
2015,08,31,08,39,1.60
2015,08,31,08,40,3.20
2015,08,31,08,41,3.20
2015,08,31,08,42,1.60
2015,08,31,08,44,1.60
2015,08,31,08,46,1.60
2015,08,31,08,47,3.20
2015,08,31,08,48,3.20
2015,08,31,08,49,3.20
2015,08,31,08,50,3.20
2015,08,31,08,51,3.20
2015,08,31,08,52,1.60
2015,08,31,08,53,1.60
2015,08,31,08,54,4.80
2015,08,31,08,55,3.20
2015,08,31,08,56,3.20
2015,08,31,08,57,3.20
2015,08,31,08,58,1.60
2015,08,31,08,59,1.60
2015,08,31,09,00,1.60
2015,08,31,09,01,3.20
2015,08,31,09,02,1.60
2015,08,31,09,03,1.60
2015,08,31,09,04,3.20
2015,08,31,09,05,4.80
2015,08,31,09,06,3.20
2015,08,31,09,07,1.60
2015,08,31,09,10,3.20
2015,08,31,09,11,4.80
2015,08,31,09,12,6.40
2015,08,31,09,13,3.20
2015,08,31,09,14,4.80
2015,08,31,09,15,3.20
2015,08,31,09,16,3.20
2015,08,31,09,17,3.20
2015,08,31,09,18,1.60
2015,08,31,09,19,3.20
2015,08,31,09,20,3.20
2015,08,31,09,21,4.80
2015,08,31,09,22,4.80
2015,08,31,09,23,1.60
2015,08,31,09,25,1.60
2015,08,31,09,26,1.60
2015,08,31,09,27,1.60
2015,08,31,09,28,1.60
2015,08,31,09,29,1.60
2015,08,31,09,30,3.20
2015,08,31,09,31,3.20
2015,08,31,09,32,3.20
2015,08,31,09,33,1.60
2015,08,31,09,34,1.60
2015,08,31,09,41,3.20
2015,08,31,09,42,3.20
2015,08,31,09,52,1.60
2015,08,31,09,53,1.60
2015,08,31,09,56,1.60
2015,08,31,09,57,1.60
2015,08,31,09,58,1.60
2015,08,31,10,00,1.60
2015,08,31,10,02,3.20
2015,08,31,10,03,3.20
2015,08,31,10,04,1.60
2015,08,31,10,05,1.60
2015,08,31,10,06,1.60
2015,08,31,10,07,1.60
2015,08,31,10,18,1.60
2015,08,31,10,19,1.60
2015,08,31,10,20,3.20
2015,08,31,10,21,4.80
2015,08,31,10,22,6.40
2015,08,31,10,23,4.80
2015,08,31,10,24,6.40
2015,08,31,10,25,4.80
2015,08,31,10,26,4.80
2015,08,31,10,27,4.80
2015,08,31,10,28,4.80
2015,08,31,10,29,8.10
2015,08,31,10,30,9.60
2015,08,31,10,31,6.40
2015,08,31,10,32,6.40
2015,08,31,10,33,3.20
2015,08,31,10,36,1.60
2015,08,31,10,38,4.80
2015,08,31,10,39,4.80
2015,08,31,10,40,4.80
2015,08,31,10,41,3.20
2015,08,31,10,42,1.60
2015,08,31,10,43,4.80
2015,08,31,10,44,6.40
2015,08,31,10,45,4.80
2015,08,31,10,46,3.20
2015,08,31,10,48,1.60
2015,08,31,10,49,3.20
2015,08,31,10,50,4.80
2015,08,31,10,51,8.10
2015,08,31,10,52,6.40
2015,08,31,10,53,8.10
2015,08,31,10,54,4.80
2015,08,31,10,55,4.80
2015,08,31,10,56,6.40
2015,08,31,10,57,6.40
2015,08,31,10,58,6.40
2015,08,31,10,59,9.60
2015,08,31,11,00,9.60
2015,08,31,11,01,9.60
2015,08,31,11,02,9.60
2015,08,31,11,03,6.40
2015,08,31,11,04,8.10
2015,08,31,11,05,8.10
2015,08,31,11,06,11.30
2015,08,31,11,07,8.10
2015,08,31,11,08,11.30
2015,08,31,11,09,11.30
2015,08,31,11,10,9.60
2015,08,31,11,11,9.60
2015,08,31,11,12,8.10
2015,08,31,11,13,8.10
2015,08,31,11,14,3.20
2015,08,31,11,15,6.40
2015,08,31,11,16,4.80
2015,08,31,11,17,9.60
2015,08,31,11,18,8.10
2015,08,31,11,19,8.10
2015,08,31,11,20,8.10
2015,08,31,11,21,11.30
2015,08,31,11,22,6.40
2015,08,31,11,23,11.30
2015,08,31,11,24,9.60
2015,08,31,11,25,9.60
2015,08,31,11,26,6.40
2015,08,31,11,27,6.40
2015,08,31,11,28,9.60
2015,08,31,11,29,8.10
2015,08,31,11,30,11.30
2015,08,31,11,31,9.60
2015,08,31,11,32,6.40
2015,08,31,11,33,9.60
2015,08,31,11,34,9.60
2015,08,31,11,35,9.60
2015,08,31,11,36,9.60
2015,08,31,11,37,9.60
2015,08,31,11,38,11.30
2015,08,31,11,39,9.60
2015,08,31,11,40,9.60
2015,08,31,11,41,12.90
2015,08,31,11,42,6.40
2015,08,31,11,43,9.60
2015,08,31,11,44,9.60
2015,08,31,11,45,12.90
2015,08,31,11,46,11.30
2015,08,31,11,47,9.60
2015,08,31,11,48,6.40
2015,08,31,11,49,11.30
2015,08,31,11,50,9.60
2015,08,31,11,51,12.90
2015,08,31,11,52,11.30
2015,08,31,11,53,11.30
2015,08,31,11,54,8.10
2015,08,31,11,55,9.60
2015,08,31,11,56,6.40
2015,08,31,11,57,4.80
2015,08,31,11,58,6.40
2015,08,31,11,59,6.40
2015,08,31,12,00,12.90
2015,08,31,12,01,8.10
2015,08,31,12,02,8.10
2015,08,31,12,03,11.30
2015,08,31,12,04,8.10
2015,08,31,12,05,8.10
2015,08,31,12,06,9.60
2015,08,31,12,07,8.10
2015,08,31,12,08,9.60
2015,08,31,12,09,9.60
2015,08,31,12,10,6.40
2015,08,31,12,11,6.40
2015,08,31,12,12,9.60
2015,08,31,12,13,8.10
2015,08,31,12,14,8.10
2015,08,31,12,15,8.10
2015,08,31,12,16,3.20
2015,08,31,12,17,4.80
2015,08,31,12,18,8.10
2015,08,31,12,19,4.80
2015,08,31,12,20,6.40
2015,08,31,12,21,6.40
2015,08,31,12,22,6.40
2015,08,31,12,23,4.80
2015,08,31,12,24,8.10
2015,08,31,12,25,9.60
2015,08,31,12,26,8.10
2015,08,31,12,27,8.10
2015,08,31,12,28,4.80
2015,08,31,12,29,4.80
2015,08,31,12,30,6.40
2015,08,31,12,31,8.10
2015,08,31,12,32,6.40
2015,08,31,12,33,6.40
2015,08,31,12,34,11.30
2015,08,31,12,35,9.60
2015,08,31,12,36,12.90
2015,08,31,12,37,11.30
2015,08,31,12,38,8.10
2015,08,31,12,39,9.60
2015,08,31,12,40,11.30
2015,08,31,12,41,12.90
2015,08,31,12,42,9.60
2015,08,31,12,43,14.50
2015,08,31,12,44,14.50
2015,08,31,12,45,9.60
2015,08,31,12,46,11.30
2015,08,31,12,47,9.60
2015,08,31,12,48,16.10
2015,08,31,12,49,11.30
2015,08,31,12,50,11.30
2015,08,31,12,51,11.30
2015,08,31,12,52,11.30
2015,08,31,12,53,8.10
2015,08,31,12,54,14.50
2015,08,31,12,55,12.90
2015,08,31,12,56,11.30
2015,08,31,12,57,11.30
2015,08,31,12,58,14.50
2015,08,31,12,59,11.30
2015,08,31,13,00,8.10
2015,08,31,13,01,11.30
2015,08,31,13,02,9.60
2015,08,31,13,03,8.10
2015,08,31,13,04,11.30
2015,08,31,13,05,11.30
2015,08,31,13,06,9.60
2015,08,31,13,07,12.90
2015,08,31,13,08,11.30
2015,08,31,13,09,11.30
2015,08,31,13,10,9.60
2015,08,31,13,11,12.90
2015,08,31,13,12,9.60
2015,08,31,13,13,12.90
2015,08,31,13,14,14.50
2015,08,31,13,15,14.50
2015,08,31,13,16,12.90
2015,08,31,13,17,11.30
2015,08,31,13,18,9.60
2015,08,31,13,19,11.30
2015,08,31,13,20,11.30
2015,08,31,13,21,12.90
2015,08,31,13,22,9.60
2015,08,31,13,23,11.30
2015,08,31,13,24,9.60
2015,08,31,13,25,8.10
2015,08,31,13,26,11.30
2015,08,31,13,27,8.10
2015,08,31,13,28,6.40
2015,08,31,13,29,6.40
2015,08,31,13,30,11.30
2015,08,31,13,31,9.60
2015,08,31,13,32,8.10
2015,08,31,13,33,9.60
2015,08,31,13,34,9.60
2015,08,31,13,35,9.60
2015,08,31,13,36,8.10
2015,08,31,13,37,8.10
2015,08,31,13,38,8.10
2015,08,31,13,39,9.60
2015,08,31,13,40,6.40
2015,08,31,13,41,8.10
2015,08,31,13,42,11.30
2015,08,31,13,43,4.80
2015,08,31,13,44,8.10
2015,08,31,13,45,6.40
2015,08,31,13,46,4.80
2015,08,31,13,47,9.60
2015,08,31,13,48,16.10
2015,08,31,13,49,9.60
2015,08,31,13,50,14.50
2015,08,31,13,51,11.30
2015,08,31,13,52,11.30
2015,08,31,13,53,11.30
2015,08,31,13,54,14.50
2015,08,31,13,55,11.30
2015,08,31,13,56,12.90
2015,08,31,13,57,8.10
2015,08,31,13,58,9.60
2015,08,31,13,59,8.10
2015,08,31,14,00,11.30
2015,08,31,14,01,12.90
2015,08,31,14,02,14.50
2015,08,31,14,03,11.30
2015,08,31,14,04,6.40
2015,08,31,14,05,14.50
2015,08,31,14,06,11.30
2015,08,31,14,07,11.30
2015,08,31,14,08,11.30
2015,08,31,14,09,12.90
2015,08,31,14,10,9.60
2015,08,31,14,11,14.50
2015,08,31,14,12,16.10
2015,08,31,14,13,11.30
2015,08,31,14,14,12.90
2015,08,31,14,15,9.60
2015,08,31,14,16,14.50
2015,08,31,14,17,11.30
2015,08,31,14,18,14.50
2015,08,31,14,19,9.60
2015,08,31,14,20,14.50
2015,08,31,14,21,16.10
2015,08,31,14,22,12.90
2015,08,31,14,23,9.60
2015,08,31,14,24,9.60
2015,08,31,14,25,16.10
2015,08,31,14,26,16.10
2015,08,31,14,27,17.70
2015,08,31,14,28,19.30
2015,08,31,14,29,14.50
2015,08,31,14,30,16.10
2015,08,31,14,31,12.90
2015,08,31,14,32,19.30
2015,08,31,14,33,14.50
2015,08,31,14,34,14.50
2015,08,31,14,35,20.90
2015,08,31,14,36,14.50
2015,08,31,14,37,16.10
2015,08,31,14,38,17.70
2015,08,31,14,39,20.90
2015,08,31,14,40,16.10
2015,08,31,14,41,14.50
2015,08,31,14,42,8.10
2015,08,31,14,43,16.10
2015,08,31,14,44,16.10
2015,08,31,14,45,14.50
2015,08,31,14,46,17.70
2015,08,31,14,47,17.70
2015,08,31,14,48,14.50
2015,08,31,14,49,14.50
2015,08,31,14,50,17.70
2015,08,31,14,51,14.50
2015,08,31,14,52,22.50
2015,08,31,14,53,17.70
2015,08,31,14,54,17.70
2015,08,31,14,55,19.30
2015,08,31,14,56,19.30
2015,08,31,14,57,17.70
2015,08,31,14,58,16.10
2015,08,31,14,59,12.90
2015,08,31,15,00,16.10
2015,08,31,15,01,19.30
2015,08,31,15,02,20.90
2015,08,31,15,03,17.70
2015,08,31,15,04,19.30
2015,08,31,15,05,16.10
2015,08,31,15,06,22.50
2015,08,31,15,07,19.30
2015,08,31,15,08,16.10
2015,08,31,15,09,19.30
2015,08,31,15,10,22.50
2015,08,31,15,11,20.90
2015,08,31,15,12,19.30
2015,08,31,15,13,12.90
2015,08,31,15,14,16.10
2015,08,31,15,15,14.50
2015,08,31,15,16,17.70
2015,08,31,15,17,16.10
2015,08,31,15,18,16.10
2015,08,31,15,19,20.90
2015,08,31,15,20,11.30
2015,08,31,15,21,11.30
2015,08,31,15,22,8.10
2015,08,31,15,23,9.60
2015,08,31,15,24,16.10
2015,08,31,15,25,17.70
2015,08,31,15,26,16.10
2015,08,31,15,27,11.30
2015,08,31,15,28,12.90
2015,08,31,15,29,12.90
2015,08,31,15,30,14.50
2015,08,31,15,31,11.30
2015,08,31,15,32,17.70
2015,08,31,15,33,19.30
2015,08,31,15,34,16.10
2015,08,31,15,35,16.10
2015,08,31,15,36,14.50
2015,08,31,15,37,19.30
2015,08,31,15,38,14.50
2015,08,31,15,39,14.50
2015,08,31,15,40,12.90
2015,08,31,15,41,17.70
2015,08,31,15,42,11.30
2015,08,31,15,43,17.70
2015,08,31,15,44,16.10
2015,08,31,15,45,14.50
2015,08,31,15,46,14.50
2015,08,31,15,47,12.90
2015,08,31,15,48,17.70
2015,08,31,15,49,17.70
2015,08,31,15,50,9.60
2015,08,31,15,51,17.70
2015,08,31,15,52,17.70
2015,08,31,15,53,14.50
2015,08,31,15,54,14.50
2015,08,31,15,55,11.30
2015,08,31,15,56,11.30
2015,08,31,15,57,12.90
2015,08,31,15,58,9.60
2015,08,31,15,59,12.90
2015,08,31,16,00,14.50
2015,08,31,16,01,16.10
2015,08,31,16,02,17.70
2015,08,31,16,03,11.30
2015,08,31,16,04,9.60
2015,08,31,16,05,12.90
2015,08,31,16,06,16.10
2015,08,31,16,07,12.90
2015,08,31,16,08,14.50
2015,08,31,16,09,11.30
2015,08,31,16,10,12.90
2015,08,31,16,11,12.90
2015,08,31,16,12,6.40
2015,08,31,16,13,8.10
2015,08,31,16,14,11.30
2015,08,31,16,15,6.40
2015,08,31,16,16,16.10
2015,08,31,16,17,19.30
2015,08,31,16,18,12.90
2015,08,31,16,19,12.90
2015,08,31,16,20,11.30
2015,08,31,16,21,12.90
2015,08,31,16,22,14.50
2015,08,31,16,23,11.30
2015,08,31,16,24,17.70
2015,08,31,16,25,14.50
2015,08,31,16,26,12.90
2015,08,31,16,27,14.50
2015,08,31,16,28,14.50
2015,08,31,16,29,14.50
2015,08,31,16,30,9.60
2015,08,31,16,31,12.90
2015,08,31,16,32,6.40
2015,08,31,16,33,16.10
2015,08,31,16,34,12.90
2015,08,31,16,35,9.60
2015,08,31,16,36,16.10
2015,08,31,16,37,12.90
2015,08,31,16,38,14.50
2015,08,31,16,39,17.70
2015,08,31,16,40,19.30
2015,08,31,16,41,17.70
2015,08,31,16,42,16.10
2015,08,31,16,43,12.90
2015,08,31,16,44,14.50
2015,08,31,16,45,12.90
2015,08,31,16,46,14.50
2015,08,31,16,47,11.30
2015,08,31,16,48,11.30
2015,08,31,16,49,4.80
2015,08,31,16,50,8.10
2015,08,31,16,51,11.30
2015,08,31,16,52,12.90
2015,08,31,16,53,19.30
2015,08,31,16,54,20.90
2015,08,31,16,55,14.50
2015,08,31,16,56,12.90
2015,08,31,16,57,12.90
2015,08,31,16,58,11.30
2015,08,31,16,59,9.60
2015,08,31,17,00,11.30
2015,08,31,17,01,11.30
2015,08,31,17,02,12.90
2015,08,31,17,03,12.90
2015,08,31,17,04,12.90
2015,08,31,17,05,12.90
2015,08,31,17,06,8.10
2015,08,31,17,07,16.10
2015,08,31,17,08,8.10
2015,08,31,17,09,11.30
2015,08,31,17,10,9.60
2015,08,31,17,11,11.30
2015,08,31,17,12,11.30
2015,08,31,17,13,12.90
2015,08,31,17,14,9.60
2015,08,31,17,15,12.90
2015,08,31,17,16,11.30
2015,08,31,17,17,11.30
2015,08,31,17,18,11.30
2015,08,31,17,19,11.30
2015,08,31,17,20,11.30
2015,08,31,17,21,12.90
2015,08,31,17,22,16.10
2015,08,31,17,23,14.50
2015,08,31,17,24,11.30
2015,08,31,17,25,11.30
2015,08,31,17,26,8.10
2015,08,31,17,27,4.80
2015,08,31,17,28,6.40
2015,08,31,17,29,6.40
2015,08,31,17,30,4.80
2015,08,31,17,31,4.80
2015,08,31,17,32,6.40
2015,08,31,17,33,4.80
2015,08,31,17,34,6.40
2015,08,31,17,35,6.40
2015,08,31,17,36,4.80
2015,08,31,17,37,6.40
2015,08,31,17,38,4.80
2015,08,31,17,39,4.80
2015,08,31,17,40,1.60
2015,08,31,17,41,3.20
2015,08,31,17,42,8.10
2015,08,31,17,43,6.40
2015,08,31,17,44,6.40
2015,08,31,17,45,1.60
2015,08,31,17,48,1.60
2015,08,31,17,49,3.20
2015,08,31,17,51,1.60
2015,08,31,17,52,1.60
2015,08,31,17,54,1.60
2015,08,31,17,55,1.60
2015,08,31,17,56,3.20
2015,08,31,17,57,3.20
2015,08,31,17,58,3.20
2015,08,31,17,59,4.80
2015,08,31,18,00,3.20
2015,08,31,18,01,4.80
2015,08,31,18,02,4.80
2015,08,31,18,03,3.20
2015,08,31,18,04,1.60
2015,08,31,18,05,1.60
2015,08,31,18,06,3.20
2015,08,31,18,07,1.60
2015,08,31,18,08,3.20
2015,08,31,18,09,4.80
2015,08,31,18,10,4.80
2015,08,31,18,11,4.80
2015,08,31,18,12,6.40
2015,08,31,18,13,9.60
2015,08,31,18,14,9.60
2015,08,31,18,15,6.40
2015,08,31,18,16,8.10
2015,08,31,18,17,6.40
2015,08,31,18,18,8.10
2015,08,31,18,19,6.40
2015,08,31,18,20,4.80
2015,08,31,18,21,4.80
2015,08,31,18,22,3.20
2015,08,31,18,23,3.20
2015,08,31,18,24,1.60
2015,08,31,18,25,1.60
2015,08,31,18,30,1.60
2015,08,31,18,31,4.80
2015,08,31,18,32,4.80
2015,08,31,18,33,3.20
2015,08,31,18,34,3.20
2015,08,31,18,35,1.60
2015,08,31,18,36,1.60
2015,08,31,18,37,3.20
2015,08,31,18,38,1.60
2015,08,31,18,47,3.20
2015,08,31,18,48,3.20
2015,08,31,18,49,4.80
2015,08,31,18,50,4.80
2015,08,31,18,51,4.80
2015,08,31,18,52,3.20
2015,08,31,18,53,8.10
2015,08,31,18,54,4.80
2015,08,31,18,55,9.60
2015,08,31,18,56,8.10
2015,08,31,18,57,8.10
2015,08,31,18,58,6.40
2015,08,31,18,59,6.40
2015,08,31,19,00,3.20
2015,08,31,19,01,9.60
2015,08,31,19,02,8.10
2015,08,31,19,03,4.80
2015,08,31,19,04,8.10
2015,08,31,19,05,8.10
2015,08,31,19,06,3.20
2015,08,31,19,07,4.80
2015,08,31,19,08,6.40
2015,08,31,19,09,4.80
2015,08,31,19,10,4.80
2015,08,31,19,11,1.60
2015,08,31,19,12,8.10
2015,08,31,19,13,9.60
2015,08,31,19,14,4.80
2015,08,31,19,15,4.80
2015,08,31,19,16,4.80
2015,08,31,19,17,6.40
2015,08,31,19,18,4.80
2015,08,31,19,19,4.80
2015,08,31,19,20,6.40
2015,08,31,19,21,4.80
2015,08,31,19,22,1.60
2015,08,31,19,23,3.20
2015,08,31,19,24,4.80
2015,08,31,19,25,4.80
2015,08,31,19,26,4.80
2015,08,31,19,27,4.80
2015,08,31,19,28,3.20
2015,08,31,19,29,3.20
2015,08,31,19,30,3.20
2015,08,31,19,31,3.20
2015,08,31,19,32,3.20
2015,08,31,19,33,3.20
2015,08,31,19,34,4.80
2015,08,31,19,35,3.20
2015,08,31,19,36,3.20
2015,08,31,19,37,4.80
2015,08,31,19,38,4.80
2015,08,31,19,39,1.60
2015,08,31,19,40,1.60
2015,08,31,19,43,1.60
2015,08,31,19,44,3.20
2015,08,31,19,45,4.80
2015,08,31,19,46,3.20
2015,08,31,19,47,1.60
2015,08,31,19,50,1.60
2015,08,31,19,51,1.60
2015,08,31,19,52,1.60
2015,08,31,19,57,1.60
2015,08,31,19,58,1.60
2015,08,31,19,59,1.60
2015,08,31,20,00,1.60
2015,08,31,20,02,1.60
2015,08,31,20,03,3.20
2015,08,31,20,07,3.20
2015,08,31,20,08,3.20
2015,08,31,20,09,1.60
2015,08,31,20,10,1.60
2015,08,31,20,11,3.20
2015,08,31,20,12,1.60
2015,08,31,20,13,1.60
2015,08,31,20,20,3.20
2015,08,31,20,21,3.20
2015,08,31,20,22,3.20
2015,08,31,20,23,3.20